owner,sensor,date,latitude,longitude,vertical_datum,direction_of_sea_water_velocity,sea_water_speed,upward_sea_water_velocity,qcFlag 
TABS,ioos:station:wmo:42048:1,2007-04-01T00:00:00Z,27.9396,-96.8429,2.0,231.1208693,83.35523079,-99999.0,'11111222,11111222,99999999' 
TABS,ioos:station:wmo:42048:1,2007-04-01T00:30:00Z,27.9396,-96.8429,2.0,229.8620705,89.26112928,-99999.0,'11111222,11111222,99999999' 
TABS,ioos:station:wmo:42048:1,2007-04-01T01:00:00Z,27.9396,-96.8429,2.0,230.971402,81.3557183,-99999.0,'11111222,11111222,99999999' 
TABS,ioos:station:wmo:42048:1,2007-04-01T01:30:00Z,27.9396,-96.8429,2.0,230.5061742,85.33144438,-99999.0,'11111222,11111222,99999999' 
TABS,ioos:station:wmo:42048:1,2007-04-01T02:00:00Z,27.9396,-96.8429,2.0,235.9499402,84.83474583,-99999.0,'11111222,11111222,99999999' 
TABS,ioos:station:wmo:42048:1,2007-04-01T02:30:00Z,27.9396,-96.8429,2.0,232.8435984,84.09104887,-99999.0,'11111222,11111222,99999999' 
TABS,ioos:station:wmo:42048:1,2007-04-01T03:00:00Z,27.9396,-96.8429,2.0,237.5037743,85.43683983,-99999.0,'11111222,11111222,99999999' 
TABS,ioos:station:wmo:42048:1,2007-04-01T04:00:00Z,27.9396,-96.8429,2.0,237.9732821,89.70232661,-99999.0,'11111222,11111222,99999999' 
TABS,ioos:station:wmo:42048:1,2007-04-01T04:30:00Z,27.9396,-96.8429,2.0,239.2618329,85.67621432,-99999.0,'11111222,11111222,99999999' 
TABS,ioos:station:wmo:42048:1,2007-04-01T05:00:00Z,27.9396,-96.8429,2.0,238.7118367,90.05706247,-99999.0,'11111222,11111222,99999999' 
TABS,ioos:station:wmo:42048:1,2007-04-01T05:30:00Z,27.9396,-96.8429,2.0,240.9362637,88.74444771,-99999.0,'11111222,11111222,99999999' 
TABS,ioos:station:wmo:42048:1,2007-04-01T06:00:00Z,27.9396,-96.8429,2.0,237.5967543,88.1557854,-99999.0,'11111222,11111222,99999999' 
TABS,ioos:station:wmo:42048:1,2007-04-01T06:30:00Z,27.9396,-96.8429,2.0,237.6637133,88.37455403,-99999.0,'11111222,11111222,99999999' 
TABS,ioos:station:wmo:42048:1,2007-04-01T07:00:00Z,27.9396,-96.8429,2.0,238.587823,90.35164747,-99999.0,'11111222,11111222,99999999' 
TABS,ioos:station:wmo:42048:1,2007-04-01T07:30:00Z,27.9396,-96.8429,2.0,235.4068433,92.41897695,-99999.0,'11111222,11111222,99999999' 
TABS,ioos:station:wmo:42048:1,2007-04-01T08:00:00Z,27.9396,-96.8429,2.0,230.3654028,89.07565548,-99999.0,'11111222,11111222,99999999' 
TABS,ioos:station:wmo:42048:1,2007-04-01T08:30:00Z,27.9396,-96.8429,2.0,231.8268185,88.57090098,-99999.0,'11111222,11111222,99999999' 
TABS,ioos:station:wmo:42048:1,2007-04-01T09:00:00Z,27.9396,-96.8429,2.0,228.5834463,78.16795059,-99999.0,'11111222,11111222,99999999' 
TABS,ioos:station:wmo:42048:1,2007-04-01T09:30:00Z,27.9396,-96.8429,2.0,228.3867206,80.90706397,-99999.0,'11111222,11111222,99999999' 
TABS,ioos:station:wmo:42048:1,2007-04-01T10:00:00Z,27.9396,-96.8429,2.0,230.5392464,88.63257753,-99999.0,'11111222,11111222,99999999' 
TABS,ioos:station:wmo:42048:1,2007-04-01T10:30:00Z,27.9396,-96.8429,2.0,226.2731098,90.36227974,-99999.0,'11111222,11111222,99999999' 
TABS,ioos:station:wmo:42048:1,2007-04-01T11:00:00Z,27.9396,-96.8429,2.0,232.3427218,88.96239318,-99999.0,'11111222,11111222,99999999' 
TABS,ioos:station:wmo:42048:1,2007-04-01T11:30:00Z,27.9396,-96.8429,2.0,229.4495035,89.9535041,-99999.0,'11111222,11111222,99999999' 
TABS,ioos:station:wmo:42048:1,2007-04-01T12:00:00Z,27.9396,-96.8429,2.0,229.1191812,83.47040793,-99999.0,'11111222,11111222,99999999' 
TABS,ioos:station:wmo:42048:1,2007-04-01T12:30:00Z,27.9396,-96.8429,2.0,226.5572787,81.16342156,-99999.0,'11111222,11111222,99999999' 
TABS,ioos:station:wmo:42048:1,2007-04-01T13:00:00Z,27.9396,-96.8429,2.0,229.1568992,79.0078591,-99999.0,'11111222,11111222,99999999' 
TABS,ioos:station:wmo:42048:1,2007-04-01T13:30:00Z,27.9396,-96.8429,2.0,229.3672848,79.94430874,-99999.0,'11111222,11111222,99999999' 
TABS,ioos:station:wmo:42048:1,2007-04-01T14:00:00Z,27.9396,-96.8429,2.0,230.8475056,79.60314378,-99999.0,'11111222,11111222,99999999' 
TABS,ioos:station:wmo:42048:1,2007-04-01T14:30:00Z,27.9396,-96.8429,2.0,232.2570063,74.05459135,-99999.0,'11111222,11111222,99999999' 
TABS,ioos:station:wmo:42048:1,2007-04-01T15:00:00Z,27.9396,-96.8429,2.0,225.5131142,69.44067396,-99999.0,'11111222,11111222,99999999' 
TABS,ioos:station:wmo:42048:1,2007-04-01T15:30:00Z,27.9396,-96.8429,2.0,230.6669567,71.67620595,-99999.0,'11111222,11111222,99999999' 
TABS,ioos:station:wmo:42048:1,2007-04-01T16:00:00Z,27.9396,-96.8429,2.0,232.4107425,70.4435469,-99999.0,'11111222,11111222,99999999' 
TABS,ioos:station:wmo:42048:1,2007-04-01T16:30:00Z,27.9396,-96.8429,2.0,234.5196839,70.41471792,-99999.0,'11111222,11111222,99999999' 
TABS,ioos:station:wmo:42048:1,2007-04-01T17:00:00Z,27.9396,-96.8429,2.0,235.6252079,67.5700777,-99999.0,'11111222,11111222,99999999' 
TABS,ioos:station:wmo:42048:1,2007-04-01T17:30:00Z,27.9396,-96.8429,2.0,235.6099225,71.54501869,-99999.0,'11111222,11111222,99999999' 
TABS,ioos:station:wmo:42048:1,2007-04-01T18:00:00Z,27.9396,-96.8429,2.0,238.2333486,71.38299868,-99999.0,'11111222,11111222,99999999' 
TABS,ioos:station:wmo:42048:1,2007-04-01T18:30:00Z,27.9396,-96.8429,2.0,237.8639651,71.77688207,-99999.0,'11111222,11111222,99999999' 
TABS,ioos:station:wmo:42048:1,2007-04-01T19:00:00Z,27.9396,-96.8429,2.0,236.5737772,71.57927423,-99999.0,'11111222,11111222,99999999' 
TABS,ioos:station:wmo:42048:1,2007-04-01T19:30:00Z,27.9396,-96.8429,2.0,240.9823798,74.52483747,-99999.0,'11111222,11111222,99999999' 
TABS,ioos:station:wmo:42048:1,2007-04-01T20:00:00Z,27.9396,-96.8429,2.0,236.9260289,71.92381664,-99999.0,'11111222,11111222,99999999' 
TABS,ioos:station:wmo:42048:1,2007-04-01T20:30:00Z,27.9396,-96.8429,2.0,233.0489513,72.31407194,-99999.0,'11111222,11111222,99999999' 
TABS,ioos:station:wmo:42048:1,2007-04-01T21:00:00Z,27.9396,-96.8429,2.0,235.3861848,68.32297564,-99999.0,'11111222,11111222,99999999' 
TABS,ioos:station:wmo:42048:1,2007-04-01T21:30:00Z,27.9396,-96.8429,2.0,236.2755451,65.34646815,-99999.0,'11111222,11111222,99999999' 
TABS,ioos:station:wmo:42048:1,2007-04-01T22:00:00Z,27.9396,-96.8429,2.0,237.9097348,64.65888106,-99999.0,'11111222,11111222,99999999' 
TABS,ioos:station:wmo:42048:1,2007-04-01T22:30:00Z,27.9396,-96.8429,2.0,233.8078994,62.52437925,-99999.0,'11111222,11111222,99999999' 
TABS,ioos:station:wmo:42048:1,2007-04-01T23:00:00Z,27.9396,-96.8429,2.0,231.1430778,65.47935934,-99999.0,'11111222,11111222,99999999' 
TABS,ioos:station:wmo:42048:1,2007-04-01T23:30:00Z,27.9396,-96.8429,2.0,228.3346674,61.9909687,-99999.0,'11111222,11111222,99999999' 
TABS,ioos:station:wmo:42048:1,2007-04-02T00:00:00Z,27.9396,-96.8429,2.0,230.2259694,59.85084878,-99999.0,'11111222,11111222,99999999' 
TABS,ioos:station:wmo:42048:1,2007-04-02T00:30:00Z,27.9396,-96.8429,2.0,232.6045739,57.38441078,-99999.0,'11111222,11111222,99999999' 
TABS,ioos:station:wmo:42048:1,2007-04-02T01:00:00Z,27.9396,-96.8429,2.0,228.2217566,60.63834101,-99999.0,'11111222,11111222,99999999' 
TABS,ioos:station:wmo:42048:1,2007-04-02T01:30:00Z,27.9396,-96.8429,2.0,229.7605762,61.42617113,-99999.0,'11111222,11111222,99999999' 
TABS,ioos:station:wmo:42048:1,2007-04-02T02:00:00Z,27.9396,-96.8429,2.0,228.334853,56.27494736,-99999.0,'11111222,11111222,99999999' 
TABS,ioos:station:wmo:42048:1,2007-04-02T02:30:00Z,27.9396,-96.8429,2.0,230.5245279,58.16812185,-99999.0,'11111222,11111222,99999999' 
TABS,ioos:station:wmo:42048:1,2007-04-02T03:00:00Z,27.9396,-96.8429,2.0,229.9081402,54.12954554,-99999.0,'11111222,11111222,99999999' 
TABS,ioos:station:wmo:42048:1,2007-04-02T04:00:00Z,27.9396,-96.8429,2.0,234.5600681,54.32492614,-99999.0,'11111222,11111222,99999999' 
TABS,ioos:station:wmo:42048:1,2007-04-02T04:30:00Z,27.9396,-96.8429,2.0,235.0443669,51.12254004,-99999.0,'11111222,11111222,99999999' 
TABS,ioos:station:wmo:42048:1,2007-04-02T05:00:00Z,27.9396,-96.8429,2.0,232.2301937,52.86651587,-99999.0,'11111222,11111222,99999999' 
TABS,ioos:station:wmo:42048:1,2007-04-02T05:30:00Z,27.9396,-96.8429,2.0,229.6737339,49.20148067,-99999.0,'11111222,11111222,99999999' 
TABS,ioos:station:wmo:42048:1,2007-04-02T06:00:00Z,27.9396,-96.8429,2.0,225.9224664,51.80936209,-99999.0,'11111222,11111222,99999999' 
TABS,ioos:station:wmo:42048:1,2007-04-02T06:30:00Z,27.9396,-96.8429,2.0,226.0203981,50.01452789,-99999.0,'11111222,11111222,99999999' 
TABS,ioos:station:wmo:42048:1,2007-04-02T07:00:00Z,27.9396,-96.8429,2.0,223.9181756,52.07354895,-99999.0,'11111222,11111222,99999999' 
TABS,ioos:station:wmo:42048:1,2007-04-02T07:30:00Z,27.9396,-96.8429,2.0,221.2017567,46.7575919,-99999.0,'11111222,11111222,99999999' 
TABS,ioos:station:wmo:42048:1,2007-04-02T08:00:00Z,27.9396,-96.8429,2.0,218.4088943,48.91565189,-99999.0,'11111222,11111222,99999999' 
TABS,ioos:station:wmo:42048:1,2007-04-02T08:30:00Z,27.9396,-96.8429,2.0,216.5935904,44.83852027,-99999.0,'11111222,11111222,99999999' 
TABS,ioos:station:wmo:42048:1,2007-04-02T09:00:00Z,27.9396,-96.8429,2.0,219.2044757,43.34798842,-99999.0,'11111222,11111222,99999999' 
TABS,ioos:station:wmo:42048:1,2007-04-02T09:30:00Z,27.9396,-96.8429,2.0,214.3483622,43.19181057,-99999.0,'11111222,11111222,99999999' 
TABS,ioos:station:wmo:42048:1,2007-04-02T10:00:00Z,27.9396,-96.8429,2.0,217.3975453,42.75981525,-99999.0,'11111222,11111222,99999999' 
TABS,ioos:station:wmo:42048:1,2007-04-02T10:30:00Z,27.9396,-96.8429,2.0,222.8994166,40.32510508,-99999.0,'11111222,11111222,99999999' 
TABS,ioos:station:wmo:42048:1,2007-04-02T11:00:00Z,27.9396,-96.8429,2.0,222.4279469,39.39724356,-99999.0,'11111222,11111222,99999999' 
TABS,ioos:station:wmo:42048:1,2007-04-02T12:30:00Z,27.9396,-96.8429,2.0,233.8207012,41.96105099,-99999.0,'11111222,11111222,99999999' 
TABS,ioos:station:wmo:42048:1,2007-04-02T13:00:00Z,27.9396,-96.8429,2.0,232.1482673,42.61625277,-99999.0,'11111222,11111222,99999999' 
TABS,ioos:station:wmo:42048:1,2007-04-02T13:30:00Z,27.9396,-96.8429,2.0,232.1888654,43.84591201,-99999.0,'11111222,11111222,99999999' 
TABS,ioos:station:wmo:42048:1,2007-04-02T14:30:00Z,27.9396,-96.8429,2.0,237.6067737,45.45268859,-99999.0,'11111222,11111222,99999999' 
TABS,ioos:station:wmo:42048:1,2007-04-02T15:00:00Z,27.9396,-96.8429,2.0,237.826536,45.25998343,-99999.0,'11111222,11111222,99999999' 
TABS,ioos:station:wmo:42048:1,2007-04-02T15:30:00Z,27.9396,-96.8429,2.0,243.2296554,47.51227631,-99999.0,'11111222,11111222,99999999' 
TABS,ioos:station:wmo:42048:1,2007-04-02T16:00:00Z,27.9396,-96.8429,2.0,242.9326868,46.45833079,-99999.0,'11111222,11111222,99999999' 
TABS,ioos:station:wmo:42048:1,2007-04-02T16:30:00Z,27.9396,-96.8429,2.0,243.8356029,51.11776599,-99999.0,'11111222,11111222,99999999' 
TABS,ioos:station:wmo:42048:1,2007-04-02T17:00:00Z,27.9396,-96.8429,2.0,245.5049395,47.659359,-99999.0,'11111222,11111222,99999999' 
TABS,ioos:station:wmo:42048:1,2007-04-02T17:30:00Z,27.9396,-96.8429,2.0,246.7607614,48.559757,-99999.0,'11111222,11111222,99999999' 
TABS,ioos:station:wmo:42048:1,2007-04-02T18:00:00Z,27.9396,-96.8429,2.0,244.2660132,46.84608415,-99999.0,'11111222,11111222,99999999' 
TABS,ioos:station:wmo:42048:1,2007-04-02T18:30:00Z,27.9396,-96.8429,2.0,241.608923,47.44661421,-99999.0,'11111222,11111222,99999999' 
TABS,ioos:station:wmo:42048:1,2007-04-02T19:00:00Z,27.9396,-96.8429,2.0,240.5748108,48.85184234,-99999.0,'11111222,11111222,99999999' 
TABS,ioos:station:wmo:42048:1,2007-04-02T19:30:00Z,27.9396,-96.8429,2.0,247.5466647,46.21327299,-99999.0,'11111222,11111222,99999999' 
TABS,ioos:station:wmo:42048:1,2007-04-02T20:00:00Z,27.9396,-96.8429,2.0,243.3107252,47.57916561,-99999.0,'11111222,11111222,99999999' 
TABS,ioos:station:wmo:42048:1,2007-04-02T20:30:00Z,27.9396,-96.8429,2.0,242.6522675,49.13099327,-99999.0,'11111222,11111222,99999999' 
TABS,ioos:station:wmo:42048:1,2007-04-02T21:30:00Z,27.9396,-96.8429,2.0,241.5997266,43.43776813,-99999.0,'11111222,11111222,99999999' 
TABS,ioos:station:wmo:42048:1,2007-04-02T22:00:00Z,27.9396,-96.8429,2.0,241.9248843,44.47294121,-99999.0,'11111222,11111222,99999999' 
TABS,ioos:station:wmo:42048:1,2007-04-02T22:30:00Z,27.9396,-96.8429,2.0,240.5044682,44.96797972,-99999.0,'11111222,11111222,99999999' 
TABS,ioos:station:wmo:42048:1,2007-04-02T23:00:00Z,27.9396,-96.8429,2.0,244.6333998,42.10990501,-99999.0,'11111222,11111222,99999999' 
TABS,ioos:station:wmo:42048:1,2007-04-02T23:30:00Z,27.9396,-96.8429,2.0,244.5645816,43.54023886,-99999.0,'11111222,11111222,99999999' 
TABS,ioos:station:wmo:42048:1,2007-04-03T00:00:00Z,27.9396,-96.8429,2.0,242.5275187,44.0694781,-99999.0,'11111222,11111222,99999999' 
TABS,ioos:station:wmo:42048:1,2007-04-03T00:30:00Z,27.9396,-96.8429,2.0,245.1625379,40.04382599,-99999.0,'11111222,11111222,99999999' 
TABS,ioos:station:wmo:42048:1,2007-04-03T01:30:00Z,27.9396,-96.8429,2.0,240.6644874,38.67998061,-99999.0,'11111222,11111222,99999999' 
TABS,ioos:station:wmo:42048:1,2007-04-03T02:00:00Z,27.9396,-96.8429,2.0,242.1392901,41.1496938,-99999.0,'11111222,11111222,99999999' 
TABS,ioos:station:wmo:42048:1,2007-04-03T02:30:00Z,27.9396,-96.8429,2.0,236.743268,38.84122037,-99999.0,'11111222,11111222,99999999' 
TABS,ioos:station:wmo:42048:1,2007-04-03T03:00:00Z,27.9396,-96.8429,2.0,240.6327153,40.80335403,-99999.0,'11111222,11111222,99999999' 
TABS,ioos:station:wmo:42048:1,2007-04-03T03:30:00Z,27.9396,-96.8429,2.0,236.1232763,40.93986444,-99999.0,'11111222,11111222,99999999' 
TABS,ioos:station:wmo:42048:1,2007-04-03T04:00:00Z,27.9396,-96.8429,2.0,239.7421615,39.23499713,-99999.0,'11111222,11111222,99999999' 
TABS,ioos:station:wmo:42048:1,2007-04-03T04:30:00Z,27.9396,-96.8429,2.0,232.6301702,38.07544747,-99999.0,'11111222,11111222,99999999' 
TABS,ioos:station:wmo:42048:1,2007-04-03T05:00:00Z,27.9396,-96.8429,2.0,234.9967694,38.85862839,-99999.0,'11111222,11111222,99999999' 
TABS,ioos:station:wmo:42048:1,2007-04-03T05:30:00Z,27.9396,-96.8429,2.0,240.7313634,38.02416337,-99999.0,'11111222,11111222,99999999' 
TABS,ioos:station:wmo:42048:1,2007-04-03T06:00:00Z,27.9396,-96.8429,2.0,234.0994347,38.76355118,-99999.0,'11111222,11111222,99999999' 
TABS,ioos:station:wmo:42048:1,2007-04-03T06:30:00Z,27.9396,-96.8429,2.0,236.1455094,40.67633218,-99999.0,'11111222,11111222,99999999' 
TABS,ioos:station:wmo:42048:1,2007-04-03T07:00:00Z,27.9396,-96.8429,2.0,237.4496517,37.91571706,-99999.0,'11111222,11111222,99999999' 
TABS,ioos:station:wmo:42048:1,2007-04-03T07:30:00Z,27.9396,-96.8429,2.0,233.6303771,40.28753778,-99999.0,'11111222,11111222,99999999' 
TABS,ioos:station:wmo:42048:1,2007-04-03T08:00:00Z,27.9396,-96.8429,2.0,235.0934548,38.28848521,-99999.0,'11111222,11111222,99999999' 
TABS,ioos:station:wmo:42048:1,2007-04-03T08:30:00Z,27.9396,-96.8429,2.0,234.7835212,37.90778944,-99999.0,'11111222,11111222,99999999' 
TABS,ioos:station:wmo:42048:1,2007-04-03T09:00:00Z,27.9396,-96.8429,2.0,235.311147,38.19968194,-99999.0,'11111222,11111222,99999999' 
TABS,ioos:station:wmo:42048:1,2007-04-03T09:30:00Z,27.9396,-96.8429,2.0,235.3054607,37.98338189,-99999.0,'11111222,11111222,99999999' 
TABS,ioos:station:wmo:42048:1,2007-04-03T10:00:00Z,27.9396,-96.8429,2.0,231.4258294,41.63441005,-99999.0,'11111222,11111222,99999999' 
TABS,ioos:station:wmo:42048:1,2007-04-03T10:30:00Z,27.9396,-96.8429,2.0,232.1135716,45.22111233,-99999.0,'11111222,11111222,99999999' 
TABS,ioos:station:wmo:42048:1,2007-04-03T11:00:00Z,27.9396,-96.8429,2.0,231.9536373,38.78017019,-99999.0,'11111222,11111222,99999999' 
TABS,ioos:station:wmo:42048:1,2007-04-03T11:30:00Z,27.9396,-96.8429,2.0,232.3039061,40.65622339,-99999.0,'11111222,11111222,99999999' 
TABS,ioos:station:wmo:42048:1,2007-04-03T12:00:00Z,27.9396,-96.8429,2.0,226.1788626,39.51442395,-99999.0,'11111222,11111222,99999999' 
TABS,ioos:station:wmo:42048:1,2007-04-03T12:30:00Z,27.9396,-96.8429,2.0,230.1559331,40.36235499,-99999.0,'11111222,11111222,99999999' 
TABS,ioos:station:wmo:42048:1,2007-04-03T13:00:00Z,27.9396,-96.8429,2.0,235.8390093,35.45763246,-99999.0,'11111222,11111222,99999999' 
TABS,ioos:station:wmo:42048:1,2007-04-03T13:30:00Z,27.9396,-96.8429,2.0,235.7325976,38.00721116,-99999.0,'11111222,11111222,99999999' 
TABS,ioos:station:wmo:42048:1,2007-04-03T14:00:00Z,27.9396,-96.8429,2.0,235.3017489,39.4203209,-99999.0,'11111222,11111222,99999999' 
TABS,ioos:station:wmo:42048:1,2007-04-03T14:30:00Z,27.9396,-96.8429,2.0,231.8849433,37.10075606,-99999.0,'11111222,11111222,99999999' 
TABS,ioos:station:wmo:42048:1,2007-04-03T15:00:00Z,27.9396,-96.8429,2.0,233.0637001,38.15802537,-99999.0,'11111222,11111222,99999999' 
TABS,ioos:station:wmo:42048:1,2007-04-03T15:30:00Z,27.9396,-96.8429,2.0,229.0704507,36.95470877,-99999.0,'11111222,11111222,99999999' 
TABS,ioos:station:wmo:42048:1,2007-04-03T16:30:00Z,27.9396,-96.8429,2.0,231.5795404,37.33366443,-99999.0,'11111222,11111222,99999999' 
TABS,ioos:station:wmo:42048:1,2007-04-03T17:30:00Z,27.9396,-96.8429,2.0,227.1115328,35.69070747,-99999.0,'11111222,11111222,99999999' 
TABS,ioos:station:wmo:42048:1,2007-04-03T18:00:00Z,27.9396,-96.8429,2.0,225.2752524,35.28503649,-99999.0,'11111222,11111222,99999999' 
TABS,ioos:station:wmo:42048:1,2007-04-03T18:30:00Z,27.9396,-96.8429,2.0,221.7492405,36.91379146,-99999.0,'11111222,11111222,99999999' 
TABS,ioos:station:wmo:42048:1,2007-04-03T19:00:00Z,27.9396,-96.8429,2.0,221.6696791,37.85878102,-99999.0,'11111222,11111222,99999999' 
TABS,ioos:station:wmo:42048:1,2007-04-03T19:30:00Z,27.9396,-96.8429,2.0,218.4263123,37.98802048,-99999.0,'11111222,11111222,99999999' 
TABS,ioos:station:wmo:42048:1,2007-04-03T20:00:00Z,27.9396,-96.8429,2.0,226.1585962,38.80688728,-99999.0,'11111222,11111222,99999999' 
TABS,ioos:station:wmo:42048:1,2007-04-03T20:30:00Z,27.9396,-96.8429,2.0,222.1267411,38.37341788,-99999.0,'11111222,11111222,99999999' 
TABS,ioos:station:wmo:42048:1,2007-04-03T21:00:00Z,27.9396,-96.8429,2.0,221.5398169,36.6737631,-99999.0,'11111222,11111222,99999999' 
TABS,ioos:station:wmo:42048:1,2007-04-03T21:30:00Z,27.9396,-96.8429,2.0,229.1344736,38.14871033,-99999.0,'11111222,11111222,99999999' 
TABS,ioos:station:wmo:42048:1,2007-04-03T22:00:00Z,27.9396,-96.8429,2.0,227.8194782,37.51501166,-99999.0,'11111222,11111222,99999999' 
TABS,ioos:station:wmo:42048:1,2007-04-03T22:30:00Z,27.9396,-96.8429,2.0,230.510225,38.29001175,-99999.0,'11111222,11111222,99999999' 
TABS,ioos:station:wmo:42048:1,2007-04-03T23:00:00Z,27.9396,-96.8429,2.0,232.2884996,38.95819939,-99999.0,'11111222,11111222,99999999' 
TABS,ioos:station:wmo:42048:1,2007-04-03T23:30:00Z,27.9396,-96.8429,2.0,234.9650944,39.71637446,-99999.0,'11111222,11111222,99999999' 
TABS,ioos:station:wmo:42048:1,2007-04-04T00:00:00Z,27.9396,-96.8429,2.0,235.8505068,40.15326263,-99999.0,'11111222,11111222,99999999' 
TABS,ioos:station:wmo:42048:1,2007-04-04T01:00:00Z,27.9396,-96.8429,2.0,238.2070065,41.96666534,-99999.0,'11111222,11111222,99999999' 
TABS,ioos:station:wmo:42048:1,2007-04-04T02:30:00Z,27.9396,-96.8429,2.0,249.1539106,43.75405124,-99999.0,'11111222,11111222,99999999' 
TABS,ioos:station:wmo:42048:1,2007-04-04T03:00:00Z,27.9396,-96.8429,2.0,248.8712372,43.00072209,-99999.0,'11111222,11111222,99999999' 
TABS,ioos:station:wmo:42048:1,2007-04-04T03:30:00Z,27.9396,-96.8429,2.0,250.0049439,42.2889962,-99999.0,'11111222,11111222,99999999' 
TABS,ioos:station:wmo:42048:1,2007-04-04T04:00:00Z,27.9396,-96.8429,2.0,252.6988897,44.25209713,-99999.0,'11111222,11111222,99999999' 
TABS,ioos:station:wmo:42048:1,2007-04-04T04:30:00Z,27.9396,-96.8429,2.0,253.4395221,44.17220506,-99999.0,'11111222,11111222,99999999' 
TABS,ioos:station:wmo:42048:1,2007-04-04T05:00:00Z,27.9396,-96.8429,2.0,251.6183016,43.92089366,-99999.0,'11111222,11111222,99999999' 
TABS,ioos:station:wmo:42048:1,2007-04-04T05:30:00Z,27.9396,-96.8429,2.0,253.5038926,44.76237818,-99999.0,'11111222,11111222,99999999' 
TABS,ioos:station:wmo:42048:1,2007-04-04T06:00:00Z,27.9396,-96.8429,2.0,253.0677846,44.12263138,-99999.0,'11111222,11111222,99999999' 
TABS,ioos:station:wmo:42048:1,2007-04-04T06:30:00Z,27.9396,-96.8429,2.0,247.9878215,42.98318974,-99999.0,'11111222,11111222,99999999' 
TABS,ioos:station:wmo:42048:1,2007-04-04T07:00:00Z,27.9396,-96.8429,2.0,251.4004064,43.0166398,-99999.0,'11111222,11111222,99999999' 
TABS,ioos:station:wmo:42048:1,2007-04-04T07:30:00Z,27.9396,-96.8429,2.0,253.4307886,44.184641,-99999.0,'11111222,11111222,99999999' 
TABS,ioos:station:wmo:42048:1,2007-04-04T08:30:00Z,27.9396,-96.8429,2.0,251.4233876,43.60161694,-99999.0,'11111222,11111222,99999999' 
TABS,ioos:station:wmo:42048:1,2007-04-04T09:00:00Z,27.9396,-96.8429,2.0,251.3539461,40.41101954,-99999.0,'11111222,11111222,99999999' 
TABS,ioos:station:wmo:42048:1,2007-04-04T09:30:00Z,27.9396,-96.8429,2.0,252.6221276,40.78135358,-99999.0,'11111222,11111222,99999999' 
TABS,ioos:station:wmo:42048:1,2007-04-04T10:00:00Z,27.9396,-96.8429,2.0,246.0091805,39.52438488,-99999.0,'11111222,11111222,99999999' 
TABS,ioos:station:wmo:42048:1,2007-04-04T10:30:00Z,27.9396,-96.8429,2.0,244.1926495,39.21064779,-99999.0,'11111222,11111222,99999999' 
TABS,ioos:station:wmo:42048:1,2007-04-04T11:00:00Z,27.9396,-96.8429,2.0,248.5297554,40.43583683,-99999.0,'11111222,11111222,99999999' 
TABS,ioos:station:wmo:42048:1,2007-04-04T12:00:00Z,27.9396,-96.8429,2.0,246.7037469,38.66192184,-99999.0,'11111222,11111222,99999999' 
TABS,ioos:station:wmo:42048:1,2007-04-04T12:30:00Z,27.9396,-96.8429,2.0,244.3427852,37.80771482,-99999.0,'11111222,11111222,99999999' 
TABS,ioos:station:wmo:42048:1,2007-04-04T13:00:00Z,27.9396,-96.8429,2.0,235.9777138,41.17885987,-99999.0,'11111222,11111222,99999999' 
TABS,ioos:station:wmo:42048:1,2007-04-04T13:30:00Z,27.9396,-96.8429,2.0,233.4481028,43.55667228,-99999.0,'11111222,11111222,99999999' 
TABS,ioos:station:wmo:42048:1,2007-04-04T14:00:00Z,27.9396,-96.8429,2.0,234.6892952,46.00304012,-99999.0,'11111222,11111222,99999999' 
TABS,ioos:station:wmo:42048:1,2007-04-04T14:30:00Z,27.9396,-96.8429,2.0,240.8147209,40.99419715,-99999.0,'11111222,11111222,99999999' 
TABS,ioos:station:wmo:42048:1,2007-04-04T15:00:00Z,27.9396,-96.8429,2.0,242.0972405,40.62253193,-99999.0,'11111222,11111222,99999999' 
TABS,ioos:station:wmo:42048:1,2007-04-04T15:30:00Z,27.9396,-96.8429,2.0,242.875499,39.41481067,-99999.0,'11111222,11111222,99999999' 
TABS,ioos:station:wmo:42048:1,2007-04-04T16:00:00Z,27.9396,-96.8429,2.0,237.4118558,38.06225033,-99999.0,'11111222,11111222,99999999' 
TABS,ioos:station:wmo:42048:1,2007-04-04T16:30:00Z,27.9396,-96.8429,2.0,231.3250555,36.26198698,-99999.0,'11111222,11111222,99999999' 
TABS,ioos:station:wmo:42048:1,2007-04-04T17:00:00Z,27.9396,-96.8429,2.0,228.6543921,34.49918985,-99999.0,'11111222,11111222,99999999' 
TABS,ioos:station:wmo:42048:1,2007-04-04T17:30:00Z,27.9396,-96.8429,2.0,229.9874737,36.92351554,-99999.0,'11111222,11111222,99999999' 
TABS,ioos:station:wmo:42048:1,2007-04-04T18:00:00Z,27.9396,-96.8429,2.0,223.788834,40.82331932,-99999.0,'11111222,11111222,99999999' 
TABS,ioos:station:wmo:42048:1,2007-04-04T18:30:00Z,27.9396,-96.8429,2.0,227.9392596,42.46814571,-99999.0,'11111222,11111222,99999999' 
TABS,ioos:station:wmo:42048:1,2007-04-04T19:00:00Z,27.9396,-96.8429,2.0,226.7837869,43.60720124,-99999.0,'11111222,11111222,99999999' 
TABS,ioos:station:wmo:42048:1,2007-04-04T19:30:00Z,27.9396,-96.8429,2.0,225.2306104,47.36946801,-99999.0,'11111222,11111222,99999999' 
TABS,ioos:station:wmo:42048:1,2007-04-04T20:00:00Z,27.9396,-96.8429,2.0,223.7546837,48.81603425,-99999.0,'11111222,11111222,99999999' 
TABS,ioos:station:wmo:42048:1,2007-04-04T20:30:00Z,27.9396,-96.8429,2.0,226.4040704,49.33551763,-99999.0,'11111222,11111222,99999999' 
TABS,ioos:station:wmo:42048:1,2007-04-04T21:00:00Z,27.9396,-96.8429,2.0,223.9577856,53.66413514,-99999.0,'11111222,11111222,99999999' 
TABS,ioos:station:wmo:42048:1,2007-04-04T21:30:00Z,27.9396,-96.8429,2.0,222.3940606,53.97269402,-99999.0,'11111222,11111222,99999999' 
TABS,ioos:station:wmo:42048:1,2007-04-04T22:00:00Z,27.9396,-96.8429,2.0,229.2244063,62.86999046,-99999.0,'11111222,11111222,99999999' 
TABS,ioos:station:wmo:42048:1,2007-04-04T22:30:00Z,27.9396,-96.8429,2.0,222.031541,71.55620588,-99999.0,'11111222,11111222,99999999' 
TABS,ioos:station:wmo:42048:1,2007-04-04T23:00:00Z,27.9396,-96.8429,2.0,229.5138118,71.06547755,-99999.0,'11111222,11111222,99999999' 